Voltar ao catálogo

TRANSIT 5B-1 DEB

AtivoPO
NORAD 3166·DEBRIS·🇺🇸 United States

Lançado Sep 28, 1963 de Vandenberg Space Force Base

Loading…

Próximas Passagens (próximas 24 horas)

TLE

AtualizadoSource: Space-Track

Época: Sep 14, 2026, 11:37 UTC

1 03166U 63038H   26257.48469979  .00000069  00000-0  99984-4 0  9992
2 03166  89.9673 332.6904 0043327 118.9173 255.9916 13.44984217603599

Acompanhe TRANSIT 5B-1 DEB em tempo real com AllMySat

Download on the App Store